Location: Krasnoyarskiy Pitomnik
(51.1333°N, 71.6167°E)
Time: 18:58:53
(UTC+00:00)

Vanguard 2 - Pass Details

Date: 30 April 2024
Orbit: 553 x 2914 km, 32.9° (Epoch: 22 May)

Event Time Altitude Azimuth Distance (km) Brightness Sun altitude
Exits shadow 19:34:33 33° 183° (S) 3,265 10.1 -23.5°
Maximum altitude 19:36:27 34° 169° (S) 3,334 10.2 -23.5°
Drops below altitude 10° 19:50:09 10° 113° (ESE) 5,611 11.8 -23.2°
Sets 19:55:23 0° 106° (ESE) 6,739 12.3 -23.0°
